Total_Precipitation_Accumulation
0.09 0.17 0.20 0.22 0.20 0.18 0.13 0.12 0.18 0.26 0.41 0.56 0.67 0.90 0.76 0.73 0.78 0.80 0.69 0.63 0.51 0.53 0.61 0.71 0.75 0.75 0.82 0.92 0.98 1.11 1.11 1.08 1.12 1.19 1.18 1.22 1.25 1.27 1.30 1.36 1.38 1.54 1.59 1.67
0.11 0.14 0.14 0.16 0.18 0.16 0.11 0.10 0.10 0.20 0.42 0.62 0.71 0.77 0.73 0.60 0.59 0.74 0.68 0.59 0.58 0.63 0.70 0.70 0.69 0.70 0.73 0.74 0.84 1.01 1.08 1.18 1.27 1.26 1.16 1.19 1.21 1.20 1.25 1.36 1.45 1.55 1.61 1.71
0.21 0.17 0.19 0.25 0.21 0.18 0.15 0.13 0.14 0.26 0.42 0.59 0.71 0.64 0.69 0.63 0.56 0.56 0.55 0.53 0.61 0.67 0.71 0.71 0.69 0.67 0.67 0.66 0.77 1.05 1.15 1.17 1.31 1.38 1.29 1.33 1.36 1.35 1.36 1.40 1.53 1.60 1.73 1.79
0.28 0.31 0.38 0.30 0.24 0.23 0.25 0.26 0.24 0.28 0.40 0.61 0.80 0.71 0.65 0.67 0.66 0.59 0.47 0.52 0.61 0.62 0.63 0.65 0.67 0.69 0.69 0.70 0.76 1.00 1.18 1.24 1.46 1.61 1.51 1.52 1.51 1.53 1.56 1.61 1.66 1.79 1.82 1.73
0.42 0.44 0.47 0.40 0.36 0.37 0.46 0.57 0.48 0.49 0.62 0.68 0.66 0.68 0.73 0.69 0.64 0.58 0.56 0.61 0.63 0.67 0.69 0.75 0.82 0.85 0.84 0.92 1.03 1.17 1.30 1.42 1.64 1.84 1.90 1.85 1.77 1.85 1.90 1.90 1.91 1.97 2.00 1.95
0.58 0.64 0.73 0.68 0.55 0.50 0.64 1.02 0.83 0.68 0.70 0.72 0.71 0.89 0.91 0.67 0.58 0.55 0.58 0.66 0.77 0.88 0.87 0.89 0.97 0.97 1.01 1.13 1.32 1.46 1.48 1.51 1.63 1.83 1.91 1.88 1.86 2.01 2.15 2.15 2.11 2.13 2.02 1.89
0.65 0.75 0.76 0.68 0.60 0.64 1.12 1.49 1.06 0.91 0.92 0.95 0.95 0.91 0.79 0.72 0.72 0.64 0.60 0.67 0.73 0.76 0.87 0.97 1.08 1.16 1.27 1.33 1.41 1.45 1.47 1.49 1.58 1.81 2.11 2.04 2.05 2.11 2.23 2.27 2.29 2.31 2.20 2.08
0.77 1.01 1.14 0.74 0.65 1.01 1.37 1.26 1.28 1.24 1.22 1.16 1.01 0.83 0.72 0.72 0.77 0.69 0.65 0.72 0.72 0.71 0.83 1.00 1.19 1.37 1.42 1.41 1.44 1.54 1.55 1.55 1.63 1.87 1.96 2.00 2.12 2.17 2.30 2.39 2.39 2.34 2.34 2.19
1.03 1.25 1.15 0.91 0.98 1.02 1.10 1.22 1.27 1.20 1.21 1.18 1.13 1.00 0.89 0.84 0.80 0.76 0.82 0.82 0.84 0.84 0.90 1.00 1.17 1.38 1.52 1.53 1.53 1.51 1.48 1.47 1.56 1.69 1.76 1.89 1.97 1.93 1.99 2.11 2.12 2.15 2.17 2.12
1.43 1.42 1.25 1.09 1.00 1.01 0.99 1.05 1.05 1.00 0.96 0.95 0.95 0.93 0.90 0.90 0.92 0.94 0.99 0.95 0.94 0.96 0.98 1.04 1.13 1.31 1.45 1.44 1.48 1.48 1.42 1.38 1.47 1.67 1.77 1.84 1.89 1.88 1.94 2.01 2.06 2.12 2.13 2.06
1.78 1.74 1.53 1.43 1.24 1.19 1.07 1.04 1.04 0.97 0.93 0.88 0.79 0.79 0.79 0.77 0.79 0.85 0.93 0.95 0.92 0.93 0.96 0.98 1.06 1.27 1.41 1.42 1.46 1.52 1.49 1.44 1.51 1.61 1.72 1.85 1.90 1.93 1.95 1.96 1.92 1.91 1.92 1.87
1.92 1.74 1.61 1.61 1.31 1.26 1.32 1.20 1.08 1.06 1.02 0.93 0.80 0.75 0.74 0.72 0.73 0.76 0.83 0.95 0.97 1.00 0.99 0.98 1.06 1.21 1.34 1.49 1.63 1.66 1.58 1.53 1.49 1.48 1.56 1.63 1.69 1.65 1.58 1.53 1.51 1.46 1.46 1.38
1.29 1.36 1.44 1.58 1.42 1.25 1.24 1.19 1.11 1.09 1.06 0.96 0.86 0.80 0.68 0.62 0.68 0.75 0.83 0.94 1.04 1.12 1.09 1.06 1.12 1.22 1.31 1.43 1.61 1.71 1.65 1.52 1.41 1.34 1.34 1.36 1.46 1.55 1.58 1.47 1.37 1.27 1.21 1.10
1.29 1.39 1.50 1.46 1.49 1.44 1.26 1.18 1.10 1.05 1.01 0.93 0.87 0.82 0.74 0.72 0.72 0.81 0.93 1.01 1.01 1.05 1.07 1.06 1.09 1.16 1.26 1.42 1.59 1.66 1.61 1.51 1.35 1.27 1.25 1.23 1.29 1.38 1.43 1.46 1.42 1.24 1.08 0.98
1.49 1.42 1.41 1.35 1.35 1.44 1.40 1.35 1.24 1.13 1.02 0.98 0.93 0.92 0.85 0.80 0.78 0.83 0.91 1.07 1.20 1.21 1.12 1.11 1.13 1.16 1.20 1.35 1.48 1.58 1.58 1.48 1.34 1.29 1.28 1.18 1.10 1.13 1.18 1.22 1.30 1.25 1.09 1.02
1.38 1.30 1.29 1.34 1.38 1.34 1.28 1.32 1.29 1.16 0.95 0.90 0.93 0.92 0.86 0.82 0.85 0.91 0.98 1.12 1.40 1.55 1.42 1.26 1.18 1.15 1.18 1.30 1.39 1.35 1.33 1.28 1.23 1.23 1.21 1.16 1.11 1.12 1.18 1.25 1.30 1.27 1.15 1.04
1.21 1.14 1.12 1.17 1.23 1.27 1.23 1.17 1.12 1.04 0.92 0.88 0.87 0.85 0.83 0.86 0.97 1.12 1.21 1.26 1.33 1.35 1.35 1.35 1.27 1.19 1.23 1.33 1.39 1.28 1.14 1.08 1.03 1.02 1.05 1.04 1.05 1.12 1.22 1.29 1.30 1.20 1.03 0.90
0.93 0.93 0.97 0.99 1.01 1.12 1.13 1.02 0.93 0.90 0.87 0.87 0.86 0.86 0.88 0.94 1.15 1.38 1.42 1.36 1.33 1.22 1.13 1.16 1.18 1.18 1.26 1.31 1.37 1.34 1.18 1.03 0.92 0.90 0.94 0.96 1.03 1.13 1.20 1.17 1.10 1.03 0.93 0.84
0.72 0.76 0.81 0.85 0.87 0.89 0.93 0.92 0.93 0.88 0.83 0.83 0.88 0.94 0.99 1.04 1.22 1.44 1.49 1.54 1.53 1.36 1.11 0.99 1.03 1.05 1.14 1.21 1.30 1.28 1.07 0.87 0.72 0.67 0.71 0.80 0.94 1.10 1.14 1.05 0.94 0.89 0.86 0.83
0.68 0.66 0.68 0.70 0.71 0.75 0.77 0.77 0.79 0.81 0.79 0.82 0.89 0.93 1.04 1.13 1.30 1.49 1.56 1.59 1.49 1.30 1.10 0.93 0.87 0.85 0.90 1.06 1.17 1.11 0.94 0.77 0.63 0.57 0.58 0.66 0.82 1.00 1.01 0.92 0.88 0.90 0.89 0.89
0.67 0.65 0.64 0.66 0.69 0.68 0.68 0.67 0.70 0.76 0.80 0.83 0.93 1.05 1.12 1.12 1.24 1.48 1.69 1.69 1.39 1.09 0.95 0.93 0.83 0.76 0.80 0.96 1.00 0.90 0.80 0.71 0.60 0.57 0.62 0.73 0.90 0.99 0.91 0.81 0.78 0.80 0.80 0.86
0.72 0.69 0.65 0.64 0.70 0.71 0.71 0.73 0.75 0.79 0.86 0.87 0.93 1.05 1.11 1.22 1.22 1.23 1.34 1.53 1.40 1.17 0.91 0.78 0.75 0.78 0.84 0.94 0.90 0.82 0.77 0.73 0.68 0.66 0.73 0.86 0.94 0.94 0.87 0.82 0.86 0.82 0.78 0.82
0.77 0.73 0.69 0.65 0.70 0.76 0.74 0.76 0.77 0.86 0.97 0.98 0.97 0.99 1.10 1.21 1.21 1.28 1.23 1.13 1.14 1.11 0.90 0.75 0.71 0.76 0.83 0.85 0.84 0.78 0.80 0.77 0.72 0.71 0.76 0.85 0.91 0.91 0.90 0.90 0.92 0.89 0.88 0.86
0.78 0.75 0.74 0.71 0.71 0.78 0.82 0.79 0.78 0.84 0.93 0.88 0.84 0.83 0.96 1.07 1.04 0.99 1.07 1.13 1.08 1.05 0.90 0.84 0.77 0.72 0.75 0.73 0.76 0.79 0.84 0.79 0.72 0.68 0.70 0.75 0.82 0.89 0.96 0.99 0.98 0.93 0.88 0.84
0.77 0.75 0.73 0.75 0.82 0.89 0.87 0.85 0.90 0.92 0.96 0.91 0.81 0.74 0.77 0.93 1.02 0.91 0.91 0.97 0.99 0.95 0.86 0.83 0.81 0.83 0.82 0.82 0.82 0.81 0.77 0.68 0.63 0.62 0.66 0.77 0.81 0.86 0.91 0.92 0.87 0.87 0.87 0.86
0.85 0.79 0.77 0.79 0.82 0.87 0.90 1.02 1.13 1.14 1.17 1.12 0.93 0.75 0.71 0.76 0.82 0.88 0.93 0.93 0.95 0.97 0.84 0.79 0.77 0.83 0.87 0.93 0.90 0.80 0.70 0.65 0.65 0.66 0.71 0.78 0.81 0.85 0.89 0.90 0.85 0.86 0.86 0.86
0.82 0.77 0.76 0.77 0.80 0.79 0.83 0.94 1.05 1.16 1.29 1.29 1.05 0.76 0.68 0.74 0.83 0.90 0.93 0.98 1.04 1.04 0.96 0.83 0.76 0.78 0.83 0.87 0.87 0.82 0.74 0.68 0.67 0.69 0.71 0.70 0.74 0.83 0.91 0.95 0.87 0.85 0.85 0.83